Showing default

TELKOM 3S, 41944

Orbit data source: Space-Track

TELKOM 3S, 41944 is a payload satellite owned by Telkom (ID) in GEO that was launched on Tue, 14 Feb 2017 UTC via an ARIANE 5ECA launch vehicle from the French Guiana (FRGUI). Payload-class satellites include a variety of spacecraft equipped with specific instruments for various scientific and technological missions. These include communications satellites like Starlink; space stations such as the ISS; scientific satellites like the Hubble; Earth observation satellites from companies like Planet Labs, Umbra, and HawkEye 360; GPS; miniature CubeSats for education and research; and military/defense satellites.

Not visible in the next 10 days
Identifier
41944, 2017-007A
Orbit
GEO
Country
Flag of IDID / INDO
Related business
Manufacturer
Thales Alenia
Mission
Operational Commercial Communications
Bus & Motor
SPACEBUS 4000B2, S400
Mass
3,500 kg wet, ~2,000 kg dry
Launch date (UTC)
2017-02-14 (9 years ago)
Launch vehicle
ARIANE 5ECA
Launch site
French Guiana (FRGUI)
Object type
Payload
Rocket body
Debris
Shape & HBR
Box + 2 Pan, 18.5 m
Radar Cross Section
31.794 m², Large (>1 m²)

Expand to show TLE details & history
Last TLE update: 7 hours ago

TLE from 7 hours ago
0 TELKOM 3S
1 41944U 17007A   26171.27278957  .00000000  00000-0  00000-0 0  9991
2 41944   0.0159   2.8558 0002373  88.1393  33.7086  1.00269236 34175
Epoch: 2026-06-20T06:32Z
TLE epoch observation values (Epoch: 2026-06-20T06:32:49.018Z)
Latitude
0.03009°
Longitude
118.03725°
Altitude
35,778.442 km
Speed
3.075 km/s
True Right ascension
08h 18m 55s
True Declination
0° 01' 48"
Sunlit
Object was in daylight at epoch
Visualization orbit readout
Latitude
Unknown
Longitude
Unknown
Altitude
Unknown
Speed
Unknown
Apparent Right ascension
Unknown
Apparent Declination
Unknown
Sunlit
N/A
Visualization observer readout
Local Sidereal Time
00:51:54
Azimuth
Unknown
Elevation
Unknown
Doppler factor
Unknown
Orbital elements
Apogee altitude
35,798.386 km
Perigee altitude
35,778.374 km
Semi-major axis
42,166.517 km
Eccentricity
0.00024
Inclination
0.0159°
RAAN
2.8558°
Arg. of periapsis
88.1393°
True anomaly
33.72369°
Mean anomaly
33.7086°
Eccentric anomaly
33.71615°
Mean motion
0.25066 °/min
Orbital period
1,436.19 mins
BSTAR
0
Loading maneuver chart data...
Computing Atmospheric mass density...
Loading historical data...
Loading historical data...
Loading historical data...
Loading historical data...
Loading historical data...
Loading historical data...
Loading historical data...
Other satellites on launch #7 in the year 2017 (2017-02-14 UTC)

Documentation

Showing up to 5 results
|